Location: McMath-Hulbert Observatory
(42.6964°N, 83.3187°W)
Time: 14:13:29
(UTC-04:00)

Daily predictions for brighter satellites

Satellite Brightness Start Highest point End
(mag) Time Altitude Azimuth Time Altitude Azimuth Time Altitude Azimuth
ATLAS 2AS CENTAUR R/B 4.3 19:39:33 10° NNW 19:45:58 25° NNE 19:52:07 10° E
METEOR-M 4.3 19:46:02 10° SSE 19:51:23 83° WSW 19:56:47 10° NNW
FENGYUN 3A 3.7 19:47:04 10° SSE 19:52:19 61° ENE 19:57:38 10° N
NOSS 3-1 (A) 4.1 19:48:55 10° NNW 19:56:31 75° NE 20:04:56 10° SE
Cosmos 841 Rocket 3.4 19:55:34 10° SSW 20:00:42 82° ESE 20:05:52 10° NNE
CZ-4 R/B 4.2 19:58:12 10° SSW 20:01:37 24° W 20:05:06 10° NW
H-2A R/B 3.3 19:58:27 10° SE 20:01:51 35° ENE 20:05:19 10° N
Cosmos 1544 3.9 19:59:02 10° SSE 20:02:11 29° E 20:05:20 10° NNE
SJ-6B 3.5 19:59:57 10° SE 20:03:32 33° ENE 20:07:04 10° N
NOSS 3-1 (C) 4.3 19:56:21 10° NW 20:04:00 81° WSW 20:12:27 10° SSE
Cosmos 2084 4.4 20:00:45 10° WSW 20:04:40 46° NW 20:08:25 10° NNE
BREEZE-M (TANK) 4.5 19:44:44 10° WNW 20:04:40 79° SW 20:09:07 10° SE
USA 81 4.0 20:00:52 10° N 20:06:11 83° E 20:11:28 10° S
COSMO-SKYMED 1 3.4 20:02:44 10° N 20:06:59 55° WNW 20:11:13 10° SSW
Cosmos 1953 3.9 20:06:18 10° ESE 20:08:41 15° E 20:11:04 10° NE
Cosmos 540 Rocket 3.6 20:04:58 10° S 20:09:51 49° ESE 20:14:47 10° NNE
Cosmos 1378 3.9 20:09:24 10° NNW 20:13:08 57° W 20:16:49 10° S
BREEZE-M DEB (TANK) 4.0 20:11:43 10° WNW 20:15:11 44° NNE 20:25:06 11° E
SL-27 R/B 3.5 20:12:31 10° SSE 20:15:30 25° E 20:18:32 10° NE
Cosmos 1763 Rocket 4.4 20:13:11 10° SW 20:18:11 53° WNW 20:23:17 10° NNE
Cosmos 304 Rocket 4.1 20:15:48 10° SSW 20:20:33 69° WNW 20:25:23 10° NNE
Cosmos 1707 4.2 20:17:02 10° NNW 20:20:47 42° W 20:24:30 10° SSW
BREEZE M DEB (TANK) 3.8 20:13:06 10° W 20:20:57 44° NNW 20:23:46 11° NE
SJ 16-02 1.9 20:17:25 10° N 20:21:31 37° ENE 20:24:56 14° SE
In-Cosmos 22 4.2 20:16:01 10° N 20:21:43 65° ENE 20:27:26 10° SSE
COSMOS 2406 3.2 20:16:22 10° SSW 20:22:03 77° ESE 20:27:49 10° NNE
HJ-1C 3.5 20:20:49 10° SSE 20:24:03 50° ENE 20:27:20 10° N
Cosmos 1356 Rocket 3.7 20:20:16 10° NNW 20:24:34 78° W 20:28:52 10° S
Cosmos 1674 3.9 20:21:55 10° NNE 20:24:51 21° ENE 20:25:43 20° E
Meteor 1-22 Rocket 4.1 20:20:43 10° S 20:26:22 77° E 20:31:50 10° NNE
Cosmos 1766 3.1 20:24:49 10° S 20:28:44 79° E 20:32:40 10° N
Cosmos 2228 4.1 20:29:03 10° SSW 20:33:16 48° WNW 20:37:28 10° N
Resurs 1-3 4.2 20:33:13 19° SE 20:35:46 35° ENE 20:39:46 10° N
ISS -3.8 20:36:02 10° SW 20:39:16 60° SE 20:40:34 31° ENE
FengYun 1-2 T 4.3 20:34:20 10° SSE 20:39:56 84° WSW 20:45:32 10° NNW
ALOS 3.5 20:35:37 10° S 20:40:03 44° W 20:44:31 10° NNW
Cosmos 2074 Rocket 4.1 20:34:43 10° S 20:40:55 79° W 20:47:10 10° N
Cosmos 2154 Rocket 4.0 20:35:19 10° SSE 20:41:21 56° E 20:47:29 10° NNE
MOS 1-B Rocket 4.2 20:37:07 12° SE 20:42:19 45° ENE 20:47:39 10° N
BREEZE-M DEB (TANK) 3.7 20:32:38 10° WSW 20:45:42 70° SSE 20:48:25 25° E
Meteor 1-21 Rocket 4.5 20:42:34 10° N 20:48:06 47° ENE 20:51:42 20° SE
Elektron 1 3.6 20:48:36 10° NW 20:51:53 83° NE 20:52:33 49° SE
Spot 2 Rocket 3.6 20:50:59 22° SE 20:54:02 53° ENE 20:58:56 10° N
Cosmos 1758 3.2 20:50:07 10° S 20:54:04 60° E 20:58:01 10° NNE
Cosmos 1812 Rocket 3.5 20:51:27 10° S 20:55:54 89° WNW 21:00:24 10° N
Cosmos 2341 Rocket 4.1 20:50:38 10° SSE 20:56:36 52° E 21:02:37 10° NNE
Cosmos 2082 Rocket4.521:03:56NE21:03:56NE20:53:28SSE
Cosmos 1805 3.3 20:55:06 10° SSW 20:59:00 78° W 21:02:55 10° N
ATLAS 5 CENTAUR R/B 3.9 20:57:28 10° S 20:57:40 11° SSE 20:57:40 11° SSE
GP-B 3.0 20:59:28 10° N 21:03:56 80° E 21:08:21 10° S
Resurs 01 Rocket 1.5 21:01:55 26° SSE 21:04:24 77° ENE 21:08:50 10° N
Cosmos 2278 3.9 20:59:54 10° NNW 21:05:25 49° ENE 21:07:08 37° ESE
ATLAS CENTAUR R/B 4.5 20:54:00 10° NW 21:05:59 43° WSW 21:10:27 10° S
CZ-2D R/B 3.3 21:04:04 23° S 21:06:22 77° WSW 21:10:13 10° NNW
Meteor 2-19 Rocket 4.5 21:02:41 10° S 21:08:44 80° W 21:14:49 10° N
KORONAS-FOTON 4.1 21:05:51 10° N 21:08:59 46° NE 21:08:59 46° NE
Nadezhda 3 Rocket 4.0 21:03:47 10° N 21:10:07 89° W 21:16:21 10° S
Cosmos 1939 Rocket 3.5 21:12:33 39° NE 21:12:33 39° NE 21:15:35 10° N
Cosmos 783 Rocket 4.5 21:09:12 10° SSW 21:14:24 83° WNW 21:19:38 10° NNE
Cosmos 1656 3.9 21:09:35 10° NNW 21:15:05 49° ENE 21:16:08 43° E
Cosmos 1470 4.1 21:21:42 29° NNE 21:21:42 29° NNE 21:23:46 10° NNE
Cosmos 2218 Rocket 4.3 21:20:08 42° E 21:20:19 42° E 21:26:05 10° NNE
Cosmos 1697 Rocket 3.2 21:17:20 10° NNW 21:22:40 40° ENE 21:22:57 39° ENE
Cosmos 2285 Rocket 3.9 21:17:15 10° S 21:23:34 64° ESE 21:29:57 10° NNE
Cosmos 1809 Rocket 4.3 21:18:39 10° S 21:24:41 63° E 21:30:43 10° NNE
Cosmos 1980 Rocket 3.4 21:20:10 10° N 21:24:38 26° NE 21:24:38 26° NE
Envisat 3.0 21:24:15 33° S 21:26:34 84° WSW 21:31:41 10° NNW
Cosmos 1295 Rocket 4.3 21:21:45 10° S 21:27:50 80° E 21:33:56 10° N
Okean 3 Rocket 3.5 21:24:14 10° N 21:28:42 86° W 21:29:16 68° S
YAOGAN 6 4.5 21:33:50 23° N 21:33:50 23° N 21:35:20 10° N
Meteor 2-15 4.3 21:32:17 10° N 21:38:22 76° E 21:39:38 57° SSE
ATLAS 2AS CENTAUR R/B 2.9 21:30:29 10° NNW 21:38:32 70° NE 21:40:36 51° ESE
SL-8 Rocket 3.8 21:38:36 43° SSE 21:40:41 73° E 21:46:51 10° NNE
Meteor 2-14 Rocket 4.3 21:43:34 65° ESE 21:43:50 66° E 21:49:55 10° NNE
Cosmos 1953 3.6 21:40:56 10° SSW 21:44:44 40° WNW 21:48:36 10° N
ARGOS 4.5 21:46:44 27° NNE 21:46:44 27° NNE 21:49:51 10° N
Cosmos 1727 Rocket 4.3 21:39:07 10° N 21:44:39 48° ENE 21:44:39 48° ENE
Meteor 2-21 Rocket 4.3 21:50:33 68° SSE 21:51:20 79° E 21:57:29 10° N
SL-16 R/B 4.1 21:50:37 10° N 21:53:07 17° NNE 21:53:07 17° NNE
H-2A R/B 4.0 21:57:09 17° NNE 21:57:09 17° NNE 21:58:43 10° N
Cosmos 1076 Rocket 4.3 21:51:23 10° NNW 21:55:13 50° WNW 21:55:13 50° WNW
NOSS 3-3 (A) 4.5 21:51:48 10° SSW 22:05:31 - NE 21:55:46 43° SSW
SJ 16-02 3.7 21:56:38 10° NW 21:59:50 20° W 22:01:59 14° SW
Cosmos 2369 4.5 22:10:22 10° NW 22:15:43 45° WSW 22:16:07 44° WSW
ISS -0.3 22:13:05 10° W 22:13:15 11° WNW 22:13:15 11° WNW
FALCON 9 R/B 4.3 22:35:05 10° WSW 22:36:10 18° WSW 22:36:10 18° WSW
Cosmos 2082 Rocket 4.0 22:45:39 24° N 22:45:39 24° N 22:48:01 10° NNE
Cosmos 2322 Rocket 4.2 22:54:42 10° NNW 22:56:45 22° N 22:56:45 22° N
Cosmos 1980 Rocket 4.0 23:03:42 10° NW 23:06:24 28° NW 23:06:24 28° NW
ATLAS 2AS CENTAUR R/B 4.4 23:22:29 10° NW 23:28:02 28° W 23:28:02 28° W
